Back to catalog

COSMOS 886 DEB

AliveUNKNOWN
NORAD 9797·DEBRIS·🇷🇺 Russia

Launched Dec 27, 1976 from Baikonur Cosmodrome

Loading…

Next Passes (next 24 hours)

TLE

FreshSource: Space-Track

Epoch: Sep 13, 2026, 14:59 UTC

1 09797U 76126X   26256.62467236  .00000544  00000-0  44160-3 0  9992
2 09797  65.8203 356.9993 0897491 146.0068 220.1934 12.81934597281297

Track COSMOS 886 DEB in real time with AllMySat

Download on the App Store